Regional Weather Roundup
Issued by NWS

Home | Current Version | Previous Version | Graphics & Text | Print | Product List | Glossary On
Versions: 1 2 3 4 5 6 7 8 9 10 11 12 13 14 15 16 17 18 19 20 21 22 23 24 25 26 27 28 29 30 31 32 33 34 35 36 37 38 39 40 41 42 43 44 45 46 47 48 49 50
000
ASUS43 KOAX 011802
RWRNE

WEATHER ROUNDUP FOR NEBRASKA
NATIONAL WEATHER SERVICE OMAHA NE
100 PM CDT WED JUL 01 2015

NOTES: SATELLITE DATA IS BEING USED TO AUGMENT CLOUD COVER ABOVE
       12000 FEET.
       "FAIR" INDICATES FEW OR NO CLOUDS BELOW 12,000 FEET WITH NO
       SIGNIFICANT WEATHER AND/OR OBSTRUCTIONS TO VISIBILITY.

  * THESE STATIONS DO NOT REPORT WEATHER SUCH AS RAIN...SNOW OR FOG.

NEZ001>004-019>022-054>056-011900-
NEBRASKA PANHANDLE

CITY           SKY/WX    TMP DP  RH WIND       PRES   REMARKS
SCOTTSBLUFF    SUNNY     91  47  21 E3        30.04S
6HR MIN TEMP:  62; 6HR MAX TEMP:  92;

ALLIANCE       SUNNY     88  57  34 N13       30.03S
6HR MIN TEMP:  60; 6HR MAX TEMP:  88;

CHADRON        SUNNY     89  57  33 N8        30.00S
6HR MIN TEMP:  64; 6HR MAX TEMP:  89;

KIMBALL          N/A    N/A N/A N/A MISG        N/A
SIDNEY         SUNNY     89  59  36 N13       30.07S
6HR MIN TEMP:  61; 6HR MAX TEMP:  89;

$$

NEZ057>060-069>072-079>082-011900-
SOUTHWEST NEBRASKA

CITY           SKY/WX    TMP DP  RH WIND       PRES   REMARKS
NORTH PLATTE   SUNNY     92  63  38 N12G20    29.93S HX  93
6HR MIN TEMP:  62; 6HR MAX TEMP:  92;

IMPERIAL       SUNNY     92  60  34 N10G20    29.98R HX  91
6HR MIN TEMP:  70; 6HR MAX TEMP:  93;

LEXINGTON      SUNNY     86  68  55 NE10      29.92R
MCCOOK         SUNNY     94  60  32 NE15      29.91S HX  94
6HR MIN TEMP:  70; 6HR MAX TEMP:  94;

$$

NEZ005>010-023>029-035>040-094-011900-
NORTH CENTRAL NEBRASKA

CITY           SKY/WX    TMP DP  RH WIND       PRES   REMARKS
VALENTINE      SUNNY     83  69  62 N12       29.93S
6HR MIN TEMP:  59; 6HR MAX TEMP:  83;

AINSWORTH      PTSUNNY   80  68  65 E3        29.94S
BROKEN BOW     SUNNY     83  68  60 CALM      29.93R
6HR MIN TEMP:  63; 6HR MAX TEMP:  84;

O`NEILL        CLOUDY    74  66  75 SE7       29.93S
ORD            CLOUDY    75  65  70 NE8       29.92R
6HR MIN TEMP:  64; 6HR MAX TEMP:  76;

$$

NEZ041-046>049-061>064-073>077-083>087-011900-
SOUTH CENTRAL NEBRASKA

CITY           SKY/WX    TMP DP  RH WIND       PRES   REMARKS
GRAND ISLAND   CLOUDY    76  66  71 NE9       29.90S
6HR MIN TEMP:  65; 6HR MAX TEMP:  77;

HASTINGS       FAIR      81  69  67 N12       29.89R
6HR MIN TEMP:  67; 6HR MAX TEMP:  81;

KEARNEY *      FAIR      79  66  65 NE9       29.90S
$$

NEZ011>018-030>034-042>045-011900-
NORTHEAST NEBRASKA

CITY           SKY/WX    TMP DP  RH WIND       PRES   REMARKS
NORFOLK        CLOUDY    79  68  69 E12       29.90S
6HR MIN TEMP:  65; 6HR MAX TEMP:  79;

COLUMBUS *     FAIR     N/A N/A N/A MISG        N/A
FREMONT        FAIR      83  67  59 E9        29.87F
TEKAMAH        FAIR      80  69  69 E10       29.88F
6HR MIN TEMP:  67; 6HR MAX TEMP:  80; 6HR PCP:  0.01;

$$

NEZ050>053-065>068-078-088>093-011900-
SOUTHEAST NEBRASKA

CITY           SKY/WX    TMP DP  RH WIND       PRES   REMARKS
LINCOLN        PTSUNNY   82  69  64 E8        29.86S
6HR MIN TEMP:  67; 6HR MAX TEMP:  83;

OMAHA EPPLEY   FAIR      81  69  67 SE13      29.87F
6HR MIN TEMP:  68; 6HR MAX TEMP:  81;

FALLS CITY     PTSUNNY   80  71  74 E12       29.84S
6HR MIN TEMP:  69; 6HR MAX TEMP:  80;

PLATTSMOUTH    PTSUNNY   80  70  69 E8        29.87S
$$

NEZ044-045-051>053-067-011900-
OMAHA AREA

CITY           SKY/WX    TMP DP  RH WIND       PRES   REMARKS
OMAHA EPPLEY   FAIR      81  69  67 SE13      29.87F
6HR MIN TEMP:  68; 6HR MAX TEMP:  81;

FREMONT        FAIR      83  67  59 E9        29.87F
MILLARD        FAIR      80  69  68 SE9       29.86F
PLATTSMOUTH    PTSUNNY   80  70  69 E8        29.87S
$$



USA.gov is the U.S. government's official web portal to all federal, state and local government web resources and services.